TimeEDT,TemperatureF,Dew PointF,Humidity,Sea Level PressureIn,VisibilityMPH,Wind Direction,Wind SpeedMPH,Gust SpeedMPH,PrecipitationIn,Events,Conditions,WindDirDegrees,DateUTC
12:15 AM,63.5,59.5,87,30.21,10.0,Calm,Calm,-,N/A,,Clear,0,2013-05-27 04:15:00
12:35 AM,62.4,59.5,90,30.21,10.0,Calm,Calm,-,N/A,,Clear,0,2013-05-27 04:35:00
12:55 AM,62.6,59.2,89,30.21,10.0,Calm,Calm,-,N/A,,Clear,0,2013-05-27 04:55:00
1:15 AM,62.6,59.7,90,30.20,10.0,Calm,Calm,-,N/A,,Clear,0,2013-05-27 05:15:00
1:35 AM,61.3,59.0,92,30.20,10.0,Calm,Calm,-,N/A,,Clear,0,2013-05-27 05:35:00
1:55 AM,61.7,59.5,93,30.20,10.0,Calm,Calm,-,N/A,,Clear,0,2013-05-27 05:55:00
2:15 AM,63.3,58.3,84,30.20,10.0,Calm,Calm,-,N/A,,Clear,0,2013-05-27 06:15:00
2:35 AM,63.9,58.5,83,30.20,10.0,Calm,Calm,-,N/A,,Clear,0,2013-05-27 06:35:00
2:55 AM,64.6,58.1,79,30.20,10.0,Calm,Calm,-,N/A,,Clear,0,2013-05-27 06:55:00
3:15 AM,61.3,57.7,88,30.20,10.0,Calm,Calm,-,N/A,,Clear,0,2013-05-27 07:15:00
3:35 AM,60.8,57.9,90,30.20,10.0,Calm,Calm,-,N/A,,Clear,0,2013-05-27 07:35:00
3:55 AM,59.5,57.2,92,30.20,10.0,Calm,Calm,-,N/A,,Clear,0,2013-05-27 07:55:00
4:15 AM,61.3,58.1,89,30.20,10.0,Calm,Calm,-,N/A,,Clear,0,2013-05-27 08:15:00
4:35 AM,62.6,57.6,84,30.20,10.0,Calm,Calm,-,N/A,,Clear,0,2013-05-27 08:35:00
4:55 AM,62.6,57.6,84,30.20,10.0,SE,3.5,-,N/A,,Clear,140,2013-05-27 08:55:00
5:15 AM,61.7,57.6,86,30.21,10.0,Calm,Calm,-,N/A,,Clear,0,2013-05-27 09:15:00
5:35 AM,59.0,56.3,91,30.21,10.0,Calm,Calm,-,N/A,,Clear,0,2013-05-27 09:35:00
5:55 AM,58.8,56.7,93,30.22,10.0,Calm,Calm,-,N/A,,Clear,0,2013-05-27 09:55:00
6:15 AM,57.9,55.6,92,30.22,10.0,Calm,Calm,-,N/A,,Clear,0,2013-05-27 10:15:00
6:35 AM,58.6,56.5,93,30.22,10.0,Calm,Calm,-,N/A,,Clear,0,2013-05-27 10:35:00
6:55 AM,58.5,56.1,92,30.23,10.0,Calm,Calm,-,N/A,,Clear,0,2013-05-27 10:55:00
7:15 AM,60.3,57.0,89,30.23,10.0,Calm,Calm,-,N/A,,Clear,0,2013-05-27 11:15:00
7:35 AM,62.8,59.9,90,30.24,10.0,Calm,Calm,-,N/A,,Clear,0,2013-05-27 11:35:00
7:55 AM,66.2,58.6,77,30.25,10.0,Calm,Calm,-,N/A,,Clear,0,2013-05-27 11:55:00
8:15 AM,68.7,59.4,72,30.25,10.0,SW,3.5,-,N/A,,Clear,220,2013-05-27 12:15:00
8:35 AM,71.1,58.3,64,30.25,10.0,Calm,Calm,-,N/A,,Clear,0,2013-05-27 12:35:00
8:55 AM,72.9,58.5,60,30.25,10.0,SSW,3.5,-,N/A,,Clear,210,2013-05-27 12:55:00
9:15 AM,74.5,59.0,58,30.25,10.0,SSW,3.5,-,N/A,,Clear,210,2013-05-27 13:15:00
9:35 AM,76.5,60.3,57,30.25,10.0,West,5.8,-,N/A,,Clear,260,2013-05-27 13:35:00
9:55 AM,77.9,61.7,57,30.25,10.0,West,5.8,-,N/A,,Clear,280,2013-05-27 13:55:00
10:15 AM,79.0,63.5,59,30.25,10.0,WSW,4.6,-,N/A,,Clear,240,2013-05-27 14:15:00
10:35 AM,79.9,64.0,58,30.25,10.0,SW,4.6,-,N/A,,Clear,230,2013-05-27 14:35:00
10:55 AM,81.7,64.9,57,30.25,10.0,Calm,Calm,-,N/A,,Clear,0,2013-05-27 14:55:00
11:15 AM,82.0,63.5,53,30.25,10.0,Calm,Calm,-,N/A,,Clear,0,2013-05-27 15:15:00
11:35 AM,82.9,62.2,49,30.25,10.0,South,4.6,-,N/A,,Clear,190,2013-05-27 15:35:00
11:55 AM,84.4,57.9,40,30.25,10.0,SW,5.8,-,N/A,,Clear,220,2013-05-27 15:55:00
12:15 PM,84.9,58.1,40,30.24,10.0,WNW,4.6,-,N/A,,Clear,290,2013-05-27 16:15:00
12:35 PM,86.2,56.3,36,30.23,10.0,South,4.6,-,N/A,,Clear,170,2013-05-27 16:35:00
12:55 PM,86.2,55.8,35,30.23,10.0,Calm,Calm,-,N/A,,Clear,0,2013-05-27 16:55:00
1:15 PM,85.5,56.3,37,30.22,10.0,Calm,Calm,-,N/A,,Scattered Clouds,0,2013-05-27 17:15:00
1:35 PM,86.9,56.1,35,30.21,10.0,SSE,6.9,-,N/A,,Scattered Clouds,160,2013-05-27 17:35:00
1:55 PM,89.2,55.8,32,30.21,10.0,South,5.8,-,N/A,,Scattered Clouds,170,2013-05-27 17:55:00
2:15 PM,89.8,54.0,29,30.20,10.0,SSE,4.6,-,N/A,,Scattered Clouds,150,2013-05-27 18:15:00
2:35 PM,88.7,54.0,30,30.20,10.0,Calm,Calm,-,N/A,,Scattered Clouds,0,2013-05-27 18:35:00
2:55 PM,89.1,54.7,31,30.19,10.0,ESE,3.5,-,N/A,,Scattered Clouds,120,2013-05-27 18:55:00
3:15 PM,88.9,53.8,30,30.19,10.0,South,3.5,-,N/A,,Scattered Clouds,170,2013-05-27 19:15:00
3:35 PM,90.0,53.6,29,30.18,10.0,Calm,Calm,-,N/A,,Clear,0,2013-05-27 19:35:00
3:55 PM,89.4,53.1,29,30.18,10.0,SW,3.5,-,N/A,,Clear,230,2013-05-27 19:55:00
4:15 PM,90.1,54.5,30,30.18,10.0,South,4.6,-,N/A,,Scattered Clouds,180,2013-05-27 20:15:00
4:35 PM,89.4,53.4,29,30.17,10.0,SW,5.8,-,N/A,,Clear,220,2013-05-27 20:35:00
4:55 PM,90.1,52.7,28,30.17,10.0,SE,8.1,-,N/A,,Clear,130,2013-05-27 20:55:00
5:15 PM,89.1,52.3,28,30.16,10.0,SE,5.8,-,N/A,,Scattered Clouds,140,2013-05-27 21:15:00
5:35 PM,89.2,51.3,27,30.16,10.0,Calm,Calm,-,N/A,,Scattered Clouds,0,2013-05-27 21:35:00
5:55 PM,88.0,51.3,28,30.15,10.0,ESE,4.6,-,N/A,,Scattered Clouds,110,2013-05-27 21:55:00
6:15 PM,86.9,52.2,30,30.15,10.0,SE,8.1,-,N/A,,Scattered Clouds,140,2013-05-27 22:15:00
6:35 PM,87.3,51.8,29,30.15,10.0,SE,6.9,-,N/A,,Scattered Clouds,130,2013-05-27 22:35:00
6:55 PM,87.8,53.1,30,30.14,10.0,SE,5.8,-,N/A,,Scattered Clouds,140,2013-05-27 22:55:00
7:15 PM,86.9,53.2,31,30.15,10.0,SSE,6.9,-,N/A,,Clear,160,2013-05-27 23:15:00
7:35 PM,85.8,55.4,35,30.15,10.0,South,4.6,-,N/A,,Clear,170,2013-05-27 23:35:00
7:55 PM,84.6,55.4,37,30.15,10.0,South,4.6,-,N/A,,Clear,170,2013-05-27 23:55:00
8:15 PM,82.8,55.9,40,30.15,10.0,Calm,Calm,-,N/A,,Clear,0,2013-05-28 00:15:00
8:35 PM,80.4,57.0,45,30.16,10.0,South,4.6,-,N/A,,Clear,170,2013-05-28 00:35:00
8:55 PM,79.5,57.6,47,30.16,10.0,SSE,4.6,-,N/A,,Clear,160,2013-05-28 00:55:00
9:15 PM,78.1,57.7,49,30.17,10.0,SE,3.5,-,N/A,,Clear,140,2013-05-28 01:15:00
9:35 PM,78.1,58.6,51,30.17,10.0,SSE,6.9,-,N/A,,Clear,150,2013-05-28 01:35:00
9:55 PM,76.6,59.0,54,30.18,10.0,SSE,5.8,-,N/A,,Clear,150,2013-05-28 01:55:00
10:15 PM,75.9,59.2,56,30.19,10.0,SE,4.6,-,N/A,,Clear,130,2013-05-28 02:15:00
10:35 PM,75.7,57.4,53,30.20,10.0,SE,6.9,-,N/A,,Clear,140,2013-05-28 02:35:00
10:55 PM,74.8,57.2,54,30.20,10.0,SE,8.1,-,N/A,,Clear,140,2013-05-28 02:55:00
11:15 PM,74.1,57.4,56,30.20,10.0,SE,8.1,-,N/A,,Clear,140,2013-05-28 03:15:00
11:35 PM,73.4,58.1,59,30.21,10.0,SSE,8.1,-,N/A,,Clear,150,2013-05-28 03:35:00
11:55 PM,72.7,59.9,64,30.21,10.0,SSE,6.9,-,N/A,,Clear,150,2013-05-28 03:55:00